User: anonymous   Login
Location: Unspecified
(0.0000°N, 0.0000°E)
Time: 15:22:44
(UTC+00:00)
Language:

COSMOS 2401 - Orbit

View from above orbital plane
View from above orbital plane
View from above satellite
View from above satellite

Ground track
Ground track

The orbit data is extracted from the following two-line orbital elements,

1 27869U 03037B   18267.70715140 -.00000005 +00000-0 -10833-3 0  9999
2 27869 082.4677 297.1016 0023819 109.9540 250.4107 12.45454325686559
Epoch (UTC): 24 September 2018 16:58:17
Eccentricity: 0.0023819
inclination: 82.4677°
perigee height: 1465 km
apogee height: 1502 km
right ascension of ascending node: 297.1016°
argument of perigee: 109.9540°
revolutions per day: 12.45454325
mean anomaly at epoch: 250.4107°
orbit number at epoch: 68655

The dashed part of the orbit path shows where the satellite is in the earth's shadow,  

DLR